This demonstration page uses our WeatherBlox Daily Observations layout. Learn more.

Left ArrowRight Arrow

39.08367, -84.50855

Hourly Observations for March 16, 2015

Temp ( °F °C ) Dew Point ( °F °C ) Humidity (%) Winds ( mph kmh ) Pressure ( in mb ) Visibility ( mi km ) Precip ( " mm )
12:53 am 00:53 Clear 46 7.8 40 4.4 79 79 N N/A 30.15 1021 10 16.0934 N/A
1:53 am 01:53 Clear 46 7.8 40 4.4 79 79 NNE 3 6 30.14 1021 10 16.0934 N/A
2:53 am 02:53 Clear 48 8.9 39 3.9 71 71 N N/A 30.12 1020 10 16.0934 N/A
3:53 am 03:53 Clear 48 8.9 40 4.4 74 74 W 3 6 30.13 1020 10 16.0934 N/A
4:53 am 04:53 Clear 48 8.9 38 3.3 68 68 N N/A 30.1 1019 10 16.0934 N/A
5:53 am 05:53 Clear 50 10 39 3.9 66 66 SSW 3 6 30.09 1019 10 16.0934 N/A
6:53 am 06:53 Clear 50 10 38 3.3 63 63 SSW 5 7 30.09 1019 10 16.0934 N/A
7:53 am 07:53 Sunny 48 8.9 39 3.9 71 71 S 8 13 30.09 1019 10 16.0934 N/A
8:53 am 08:53 Sunny 52 11.1 40 4.4 64 64 SSW 8 13 30.09 1019 10 16.0934 N/A
9:53 am 09:53 Sunny 57 13.9 38 3.3 49 49 SSW 9 15 30.09 1019 10 16.0934 N/A
10:53 am 10:53 Sunny 62 16.7 40 4.4 44 44 WSW 10 17 30.09 1019 10 16.0934 N/A
11:53 am 11:53 Sunny 66 18.9 40 4.4 39 39 W 7 11 30.08 1019 10 16.0934 N/A
12:53 pm 12:53 Sunny 69 20.6 40 4.4 35 35 W 12 19 30.06 1018 10 16.0934 N/A
1:53 pm 13:53 Sunny 71 21.7 40 4.4 32 32 SW 10 17 30.03 1017 10 16.0934 N/A
2:53 pm 14:53 Sunny 74 23.3 40 4.4 29 29 WSW 12 19 29.99 1016 10 16.0934 N/A
3:53 pm 15:53 Sunny 75 23.9 40 4.4 28 28 W 16 26 29.96 1015 10 16.0934 N/A
4:53 pm 16:53 Sunny 75 23.9 41 5 29 29 SW 9 15 29.94 1014 10 16.0934 N/A
5:53 pm 17:53 Sunny 73 22.8 42 5.6 33 33 SW 12 19 29.93 1014 10 16.0934 N/A
6:53 pm 18:53 Sunny 70 21.1 44 6.7 39 39 SW 13 20 29.92 1013 10 16.0934 N/A
7:53 pm 19:53 Clear 63 17.2 46 7.8 54 54 S 8 13 29.91 1013 10 16.0934 N/A
8:53 pm 20:53 Clear 58 14.4 47 8.3 67 67 SSW 6 9 29.91 1013 10 16.0934 N/A
9:53 pm 21:53 Clear 62 16.7 45 7.2 54 54 SW 13 20 29.91 1013 10 16.0934 N/A
10:53 pm 22:53 Clear 62 16.7 45 7.2 54 54 SW 13 20 29.89 1012 10 16.0934 N/A
11:53 pm 23:53 Clear 62 16.7 45 7.2 54 54 SW 14 22 29.88 1012 10 16.0934 N/A

Powered by AerisWeather